Simultaneous Nadir Overpasses (SNOs) Predictions

Prediction of SNOs near US between AQUA and NPP Satellite Orbit:

Table of predicted SNOs near US for the next 10.0 days since TLE Epoch: 12/5/2015
Index Date (AQUA) Time (AQUA) AQUA Lat,Lon Date (NPP) Time (NPP) NPP Lat,Lon Distance(km) Time Diff (sec)
1 12/05/2015 07:45:35 20.01, -89.54 12/05/2015 07:37:42 19.96, -89.43 13.45 473
2 12/05/2015 09:21:31 30.67,-111.64 12/05/2015 09:16:08 30.72,-112.02 36.35 323
3 12/08/2015 06:30:16 46.44, -65.03 12/08/2015 06:32:54 46.85, -67.06 161.78 158
4 12/08/2015 08:08:11 49.88, -88.38 12/08/2015 08:13:23 50.36, -90.94 190.00 312
5 12/08/2015 09:47:04 49.89,-113.10 12/08/2015 09:54:50 50.52,-116.24 234.40 466
6 12/10/2015 19:06:20 49.95, -92.56 12/10/2015 19:03:37 49.60, -94.40 137.69 163
7 12/10/2015 20:45:13 49.95,-117.28 12/10/2015 20:45:05 49.50,-119.73 183.01 8
8 12/13/2015 08:33:25 25.87,-100.50 12/13/2015 08:26:42 25.91,-100.63 13.42 403
9 12/13/2015 10:09:47 34.94,-122.83 12/13/2015 10:05:35 35.07,-123.45 58.84 252




NCC Satellite Simultaneous Nadir Overpasses (SNOs) Prediction Service
